Theta_e
311 314 313 310 309 310 312 313 313 313 313 314 314 313 313 312 311 315 317 315 317 317 313 329 345 347 347 345 345 344 340 339 340 340 339 338 338 337 336 337 337 337 337 336 336 336 337 338 339 339 339 339 339 339 339 339 339 339 338 337 338 338 338 338 338 338 338 337 336 335 335 335 334 335 335 334 334 333 333 333 332 332 333 333 333 332
311 314 313 310 310 311 312 314 315 314 313 313 313 312 312 312 312 316 315 316 318 314 321 341 348 345 346 344 343 343 341 340 341 341 340 339 338 337 336 337 336 336 336 336 336 336 337 338 338 338 339 339 338 338 338 338 338 338 337 337 337 337 338 338 338 338 337 336 336 335 335 335 335 335 334 333 332 332 332 332 332 332 331 329 328 327
311 312 312 311 311 311 312 314 314 314 314 313 313 312 312 312 313 314 315 318 316 317 332 345 348 346 347 344 343 344 343 342 341 341 340 339 339 338 336 336 336 335 336 336 336 336 337 338 338 338 338 338 338 338 337 338 337 337 336 337 337 338 337 336 336 336 336 335 335 335 334 335 335 334 333 333 332 331 331 330 329 328 327 325 324 324
311 311 312 311 310 311 313 313 314 314 314 314 313 311 311 312 312 310 313 316 314 327 340 345 346 346 346 345 344 345 344 344 344 343 340 340 340 338 336 336 335 335 336 337 337 337 338 338 338 338 338 338 337 337 337 337 337 336 336 337 337 337 336 335 335 335 334 334 335 335 334 334 334 333 332 331 330 330 329 328 327 326 324 323 323 322
310 310 311 311 311 312 313 313 314 313 313 314 313 312 311 312 312 311 313 315 325 339 342 343 347 347 346 346 347 346 345 345 345 344 342 341 340 338 336 336 336 336 337 338 338 338 338 338 338 338 337 338 337 337 337 337 337 336 336 336 336 336 335 335 335 334 334 334 334 334 333 333 333 332 331 329 328 328 327 326 325 324 323 322 321 321
310 310 310 311 312 312 312 312 312 312 312 313 314 314 313 313 314 314 314 315 329 340 341 340 346 348 348 348 349 347 346 345 344 343 342 340 338 336 336 337 336 336 337 337 338 338 338 338 338 338 337 337 337 337 337 336 336 335 335 335 335 335 335 334 334 334 334 333 333 333 334 333 332 331 329 328 327 326 326 325 324 323 322 320 319 319
310 311 311 311 312 312 313 312 312 312 312 312 313 314 315 315 314 314 314 313 319 333 340 334 343 349 349 347 349 349 347 345 343 342 341 339 338 335 335 336 336 336 337 338 338 338 338 338 337 337 337 337 337 337 336 335 335 334 334 334 334 334 334 334 334 334 333 333 333 333 333 333 331 329 327 327 326 325 324 324 323 322 320 319 318 317
311 310 311 311 312 312 312 311 311 312 311 311 314 315 315 314 313 313 314 313 315 327 333 327 336 347 350 347 346 348 347 346 344 343 342 339 337 336 335 336 336 337 338 338 338 338 337 338 338 337 337 337 336 336 335 334 334 333 333 333 334 333 333 333 333 333 333 332 333 333 332 331 330 328 326 326 325 324 323 322 320 319 317 317 316 315
311 310 311 311 311 310 311 311 312 312 312 312 314 315 315 314 315 315 314 315 317 323 324 322 325 334 341 345 346 347 348 349 347 344 343 340 337 336 335 336 337 338 338 337 337 338 337 337 337 336 336 335 335 335 334 334 334 333 333 333 332 332 332 333 332 332 332 332 331 331 331 329 328 327 326 325 324 322 321 320 318 317 315 314 314 314
310 310 311 310 310 310 311 312 312 312 312 314 315 315 315 315 316 317 316 313 316 322 322 322 321 321 332 345 347 347 348 348 347 344 341 338 336 336 335 335 337 338 337 337 337 337 336 336 336 335 335 335 334 334 333 333 332 331 331 330 330 329 330 331 332 331 331 330 329 328 327 326 326 325 324 324 322 321 320 318 316 315 314 312 312 312
310 311 312 311 311 311 311 313 312 312 313 314 315 313 313 316 317 317 319 314 313 320 323 322 322 319 329 344 347 345 346 346 345 343 340 337 335 335 334 334 338 338 336 336 336 336 335 335 335 335 334 334 334 333 332 331 330 329 329 328 327 327 327 328 330 330 329 328 327 326 326 326 326 325 324 322 320 319 318 316 315 314 313 311 310 310
310 310 311 311 312 312 312 313 312 313 314 313 314 313 313 315 314 313 316 314 314 321 322 320 321 318 324 340 345 343 343 342 343 343 340 337 336 335 334 334 337 338 336 336 336 335 334 334 334 333 333 332 332 331 330 330 329 328 327 326 326 325 325 326 326 327 327 326 326 326 326 326 326 325 323 321 319 318 317 315 315 313 312 311 309 309
310 310 310 312 313 313 312 312 312 313 312 313 312 312 312 312 311 312 313 316 319 322 320 317 319 318 323 337 343 342 342 341 341 341 339 336 335 335 334 334 336 338 336 336 335 334 333 334 333 332 331 330 330 330 329 329 327 326 325 325 324 324 324 323 324 324 324 324 324 324 324 324 324 323 322 320 318 317 316 315 314 313 311 310 309 308
312 311 310 312 313 313 313 311 310 311 311 312 310 311 315 313 311 313 315 319 322 320 318 318 320 317 318 331 340 340 340 340 341 340 337 335 335 335 335 334 336 338 337 336 334 333 333 333 332 331 330 329 329 329 328 327 325 324 324 323 323 322 322 322 322 322 322 322 321 322 321 321 321 320 319 318 317 316 315 314 312 311 310 309 309 308
314 314 311 311 312 312 314 311 311 312 311 312 311 313 317 316 316 316 316 320 322 319 317 316 318 316 321 335 341 337 337 340 340 338 337 336 335 334 334 334 336 337 337 335 334 333 333 332 331 330 329 329 328 328 327 325 324 323 322 322 321 321 321 321 320 320 320 320 320 320 319 319 318 317 317 316 315 315 314 313 311 309 308 308 308 308
312 313 311 312 314 313 313 312 313 313 312 314 313 312 313 318 324 321 318 321 323 321 318 317 323 327 332 341 341 337 339 341 339 338 338 338 336 334 335 336 337 337 336 334 334 333 332 331 330 329 329 328 328 327 325 324 323 322 321 321 321 320 320 319 319 318 318 318 318 318 318 317 316 316 316 315 314 313 312 311 310 308 307 307 307 307
312 313 312 313 313 312 314 314 313 313 314 315 312 311 314 320 324 320 317 319 322 323 321 324 334 336 337 343 342 339 341 340 340 340 339 339 338 337 338 337 337 336 335 334 333 332 331 330 329 329 328 328 327 326 324 323 322 322 321 320 319 319 319 318 318 317 316 317 316 316 316 315 315 315 314 314 313 312 311 310 308 308 307 306 306 306
316 315 313 312 312 313 314 314 313 314 315 313 310 312 317 317 320 323 322 317 320 325 323 326 335 336 337 344 343 341 341 341 340 340 340 341 340 339 339 338 336 335 334 334 333 331 330 329 329 329 328 327 326 324 323 323 322 321 320 319 318 318 317 317 317 316 315 315 315 314 314 314 314 314 313 313 312 310 310 308 307 307 307 306 306 305
316 315 313 311 313 314 313 314 314 313 313 312 313 316 318 317 317 320 322 319 321 324 320 321 330 334 334 336 339 342 343 341 340 340 341 341 340 339 338 337 335 334 334 333 331 330 329 329 329 328 327 326 325 324 323 322 321 320 319 318 318 317 316 316 315 315 314 314 314 313 313 313 312 312 312 312 311 310 309 308 307 307 306 306 305 305
317 317 315 312 313 314 312 313 313 313 313 312 314 317 317 319 319 319 320 322 323 323 320 319 324 327 328 331 338 342 341 340 340 340 341 341 340 339 337 336 335 333 333 332 330 330 329 328 328 327 326 325 324 324 323 321 320 319 318 317 316 315 315 314 314 313 313 313 313 313 312 312 312 311 311 311 310 309 308 307 307 306 305 305 305 304
316 318 318 313 311 313 311 312 312 312 312 310 312 315 313 314 318 319 319 318 319 323 323 320 321 325 330 332 336 339 339 338 339 340 340 339 339 338 337 336 335 333 332 331 330 330 329 328 328 327 326 325 324 323 322 320 319 318 317 316 315 314 313 313 312 312 312 313 312 312 312 312 312 311 311 310 309 308 307 307 306 306 305 305 304 303
318 321 323 316 311 311 310 312 312 311 312 313 313 314 314 315 314 316 317 314 313 321 322 320 322 332 343 339 332 336 337 335 338 339 339 339 337 337 337 336 334 333 332 331 330 329 328 328 327 326 325 324 324 323 321 319 318 317 316 315 314 314 313 312 312 312 312 312 312 312 311 311 311 311 310 309 308 307 307 306 306 305 305 305 304 303
326 325 322 316 311 312 312 312 312 312 313 314 313 314 316 316 313 316 324 320 313 316 319 317 321 337 357 348 331 333 336 334 336 338 338 338 337 336 337 335 334 333 331 330 329 328 327 327 326 325 324 324 323 322 320 318 317 316 315 314 313 313 312 312 312 312 312 312 311 311 311 311 310 310 309 308 307 307 306 305 305 305 305 304 303 303
325 322 319 315 311 311 312 311 312 313 312 313 314 315 315 316 316 321 331 329 317 316 319 318 321 339 361 353 333 331 334 333 335 336 337 338 337 337 336 334 333 332 330 329 328 328 327 326 325 324 324 323 322 320 319 317 317 315 314 314 313 312 312 311 312 311 311 311 311 311 310 310 309 308 307 307 306 306 305 305 305 304 304 303 303 302
319 320 321 319 315 313 313 312 312 311 311 314 316 315 313 316 316 316 323 323 318 318 321 323 328 341 356 349 334 332 332 333 336 335 336 338 337 337 336 333 333 331 330 330 328 327 326 325 324 324 323 323 321 319 318 317 316 315 314 313 313 312 312 311 311 311 311 311 310 310 310 309 308 307 307 307 306 306 305 305 305 305 304 303 302 301
322 324 324 324 323 320 317 314 311 310 311 313 316 316 314 313 315 318 323 322 319 317 317 326 337 344 349 340 331 332 334 335 338 337 336 338 337 336 335 333 332 331 330 330 328 327 325 324 324 323 322 322 321 319 317 316 315 315 314 313 312 312 311 311 311 311 310 310 310 309 309 308 308 307 307 306 306 305 305 305 305 304 304 303 302 301
326 327 323 324 326 324 319 315 313 312 311 312 315 315 314 315 316 322 325 324 325 320 314 326 341 341 341 339 331 333 336 336 338 339 338 338 336 335 335 333 331 331 330 329 327 326 325 323 323 322 322 322 320 318 317 316 315 314 314 313 312 312 311 311 311 311 310 310 310 309 308 308 307 307 306 306 305 305 305 304 304 303 303 302 301 300
325 324 323 323 322 322 319 315 314 314 311 311 314 315 316 318 316 320 326 330 336 328 317 327 339 334 337 342 334 333 337 336 337 338 338 338 336 335 334 332 331 331 329 328 327 325 324 323 322 322 321 321 320 318 317 316 315 314 313 313 312 312 311 311 311 310 310 310 309 309 308 307 307 306 306 306 305 305 305 304 304 303 303 303 301 299
324 323 325 323 319 319 319 316 314 314 312 310 312 316 319 318 315 320 328 334 338 333 326 333 339 333 334 337 333 334 336 335 337 338 337 337 336 335 334 332 331 330 329 328 326 325 323 322 322 321 321 320 320 318 317 316 315 314 313 313 312 311 311 311 310 310 310 309 309 308 308 307 307 306 306 305 305 305 305 304 304 304 303 303 301 300
325 324 324 320 318 319 318 318 314 311 313 312 311 316 320 320 320 323 326 327 330 333 337 341 337 332 333 334 332 335 336 335 337 338 338 337 336 335 333 332 331 329 328 327 325 324 323 322 321 321 320 320 319 318 317 315 314 314 313 312 312 311 311 310 310 309 309 309 308 308 307 307 306 306 305 305 304 304 304 304 304 304 303 302 301 300
323 323 324 319 319 320 319 321 319 312 313 314 312 315 318 319 322 322 322 323 323 327 339 344 334 329 333 333 332 336 336 336 337 338 339 337 334 334 333 331 331 329 327 326 325 323 322 321 321 321 320 319 319 318 317 314 314 313 312 312 311 311 311 310 309 309 309 308 308 307 307 306 306 305 304 304 304 304 304 304 304 303 303 302 301 300
320 324 327 321 318 322 323 323 325 321 317 316 316 317 319 321 323 322 322 323 324 326 332 333 328 328 332 333 335 338 337 337 338 338 338 336 334 333 332 331 330 328 327 325 324 323 322 322 321 320 320 319 318 318 316 314 313 313 312 311 311 311 311 310 309 309 308 308 307 306 306 306 305 305 304 304 304 304 304 303 303 303 302 302 301 299
321 323 327 324 320 322 322 323 328 328 323 321 322 323 323 325 326 324 322 325 329 333 333 330 330 333 334 334 337 338 337 338 338 337 336 335 334 332 331 330 329 327 326 325 323 323 322 321 321 320 320 319 318 317 315 313 313 312 311 311 311 311 310 309 309 308 307 307 306 306 305 305 305 304 304 304 304 304 304 303 303 303 302 302 301 299
323 321 325 327 324 322 323 329 334 331 326 327 331 330 328 328 328 325 325 329 331 331 334 335 335 334 332 335 339 338 337 338 337 336 335 333 333 332 331 330 328 327 326 324 323 322 321 321 321 320 320 319 317 316 314 313 313 312 311 311 311 310 309 308 308 307 306 306 305 305 305 304 304 304 304 304 304 304 304 303 303 303 303 302 301 300
323 321 323 325 324 325 328 332 332 328 328 334 337 335 333 331 331 331 332 334 333 331 333 331 327 330 332 335 338 338 338 337 335 335 334 332 331 332 331 329 328 327 326 324 323 322 321 321 320 319 319 318 316 315 314 313 312 311 311 311 310 310 308 307 306 305 305 305 305 305 304 304 304 304 303 304 304 304 303 303 303 303 303 302 302 301
325 323 324 324 326 328 326 328 331 327 329 339 339 335 335 333 335 337 332 329 332 334 334 331 326 328 331 333 336 337 337 338 336 334 333 332 331 331 330 329 328 326 325 324 322 322 321 320 319 319 319 318 315 314 313 312 312 311 310 310 309 309 307 306 305 304 304 304 304 304 304 303 303 303 304 304 303 303 302 302 302 302 302 302 302 301
325 323 323 322 325 329 326 329 335 329 330 342 340 333 333 330 330 334 329 330 335 332 328 330 327 325 328 331 334 335 335 338 339 336 333 331 331 330 329 328 327 325 325 323 322 322 321 319 319 318 318 317 315 314 313 312 312 311 310 309 308 307 306 305 304 303 303 303 303 303 303 303 303 303 303 303 303 302 302 302 302 301 301 301 301 302
323 322 324 322 322 327 327 329 333 329 332 344 343 338 337 330 328 331 327 331 338 330 324 327 326 324 326 328 331 333 336 340 341 339 334 331 330 330 328 327 326 324 323 322 321 321 320 319 319 318 317 316 315 313 312 311 311 310 309 308 307 305 304 303 303 303 303 303 303 303 303 303 303 303 303 303 303 302 302 302 301 301 301 300 300 301
322 321 324 324 321 322 322 325 328 326 329 338 340 338 335 331 334 334 326 329 337 330 326 326 324 325 326 328 331 333 336 341 342 339 335 331 329 329 327 327 325 323 322 322 321 320 319 318 319 317 316 315 313 312 311 311 311 310 308 307 306 304 303 303 303 302 302 303 303 303 302 302 303 303 303 302 302 302 301 301 301 300 300 299 298 298
322 320 321 323 323 322 319 321 324 325 329 337 337 331 329 332 336 332 329 334 340 337 333 328 327 331 332 334 335 331 331 337 339 336 333 330 328 327 326 326 325 322 321 321 320 320 319 318 318 316 315 314 312 311 311 310 310 309 308 307 305 304 303 303 302 302 302 302 302 302 302 302 302 303 303 302 302 301 301 301 301 300 300 299 298 298
321 320 321 324 326 323 320 319 322 328 336 339 334 328 328 332 332 332 336 341 339 339 339 332 329 334 337 340 341 334 331 335 335 334 332 329 328 327 325 324 324 322 321 321 320 320 319 318 318 315 314 313 312 310 310 310 310 309 308 306 304 303 303 302 302 302 302 302 302 302 302 302 302 302 302 302 301 301 301 301 300 300 300 300 300 300
321 318 319 323 323 322 321 319 320 328 336 335 329 328 331 333 334 337 342 340 335 337 340 333 330 332 337 341 344 341 338 337 334 333 331 328 328 328 325 323 322 321 321 320 319 319 319 318 317 314 313 312 311 310 310 310 309 309 307 305 304 303 302 302 302 302 302 302 302 301 302 302 302 302 302 302 302 302 301 301 300 300 300 300 300 300
323 320 320 322 322 321 320 317 318 327 336 334 330 329 332 338 343 342 337 335 335 336 336 335 334 335 337 340 342 341 340 336 333 331 330 328 328 327 325 323 322 321 320 319 318 319 318 318 316 313 312 312 310 310 310 309 309 308 307 305 303 302 302 302 302 302 301 301 301 301 302 302 302 302 302 301 301 301 301 301 301 300 300 300 299 299
321 321 322 322 321 320 320 318 321 330 335 336 336 335 333 337 343 340 334 334 336 336 335 336 337 336 337 339 339 338 337 335 332 331 329 328 327 326 325 323 321 320 320 318 318 319 318 317 315 313 312 311 310 310 310 309 309 308 306 304 303 302 302 302 301 301 301 301 301 301 301 302 302 302 301 301 301 301 301 301 300 300 300 299 299 300
322 325 328 325 321 326 329 328 329 332 332 334 337 336 335 335 337 338 338 336 335 336 338 338 338 337 337 337 336 336 334 333 331 330 328 328 327 325 324 322 321 320 319 318 318 318 317 316 314 312 311 311 310 310 310 309 308 307 305 304 302 302 302 301 301 301 301 301 301 301 301 301 301 301 301 301 301 301 300 300 300 299 299 299 300 301
326 328 332 328 324 328 330 329 331 333 331 333 335 334 334 335 336 338 339 337 336 338 339 339 339 339 338 337 335 335 333 331 331 330 328 328 326 324 323 322 320 320 319 318 318 317 317 316 314 312 311 311 310 310 309 308 308 306 305 303 302 302 301 301 301 301 301 301 301 301 301 301 301 301 301 301 301 300 300 300 299 299 300 300 300 300
325 326 328 326 325 328 327 327 331 331 330 332 332 331 332 333 334 336 336 336 337 337 337 340 342 341 340 339 337 335 333 332 331 331 329 327 325 324 323 322 320 319 319 318 318 317 316 315 313 312 311 311 310 309 308 308 307 306 304 302 302 302 301 301 301 301 301 301 301 301 301 301 301 301 301 301 301 300 300 300 300 300 301 301 301 301
325 326 327 324 325 330 329 327 330 331 330 331 330 329 331 332 332 333 332 333 335 334 334 339 341 338 338 340 339 336 334 333 332 332 329 326 324 323 323 321 319 319 319 318 318 317 315 314 314 313 311 310 309 308 307 307 306 305 303 302 301 301 301 301 301 301 301 301 301 301 301 300 300 301 300 300 301 300 300 301 301 301 301 301 301 301
324 325 326 324 326 331 330 327 329 329 328 330 330 330 332 333 332 331 330 331 333 332 334 338 339 337 338 340 340 338 335 333 332 331 329 326 324 323 322 320 319 319 318 318 317 317 315 314 313 313 311 310 308 307 307 306 305 304 303 302 301 301 301 301 301 301 301 301 301 300 300 300 300 300 300 300 300 300 300 301 301 301 301 301 301 300
327 327 329 329 330 331 330 329 332 332 329 329 330 330 331 332 331 329 328 330 331 332 335 336 335 336 338 338 338 339 336 333 331 330 329 327 325 323 320 319 319 319 318 317 317 316 315 314 314 312 311 309 308 307 306 305 304 303 302 302 302 302 301 301 301 301 301 301 300 300 300 300 300 300 300 300 300 300 301 301 301 301 301 300 300 300
328 327 329 331 330 329 328 329 332 334 332 329 329 331 330 330 330 328 328 330 330 331 334 333 332 333 334 332 331 335 337 335 331 330 330 328 323 320 319 319 319 318 317 317 317 315 314 313 313 311 309 308 307 306 305 304 303 302 302 302 302 302 302 301 301 300 300 300 300 300 300 300 300 300 300 301 301 301 301 300 300 300 300 300 301 300
Wind_Speed
6 4 7 10 12 12 13 12 8 8 10 9 8 7 8 8 7 8 10 12 11 11 11 9 9 9 8 6 7 6 7 10 9 9 8 8 9 9 8 7 6 6 5 8 11 13 16 16 16 20 23 24 24 25 25 24 22 22 21 20 20 20 19 19 18 19 19 19 17 16 17 18 19 19 20 20 19 18 16 16 16 15 13 11 9 8
6 7 12 14 12 11 11 11 8 10 13 11 8 8 8 9 9 11 13 12 12 9 6 12 12 8 6 6 6 6 8 9 10 11 10 10 10 8 9 9 7 5 5 8 9 11 14 13 14 19 21 23 24 23 24 23 22 20 20 21 21 21 20 19 19 19 19 18 17 18 20 20 20 19 19 19 18 16 14 13 13 13 13 11 9 9
9 12 15 13 9 9 10 10 11 12 13 10 7 6 7 8 9 11 16 12 11 8 6 13 12 7 5 7 6 5 6 7 8 10 11 12 11 9 9 9 8 7 6 7 8 11 13 13 15 17 18 21 22 22 22 21 20 19 20 22 22 22 21 19 19 19 18 17 17 19 20 21 21 20 18 16 14 12 12 12 12 12 12 11 11 11
10 12 12 9 9 12 10 11 14 13 11 9 7 5 5 8 9 8 13 11 10 8 10 13 10 5 4 5 5 5 7 7 6 8 9 9 10 11 11 9 9 9 7 6 7 9 13 14 14 15 16 19 21 21 20 20 20 19 20 22 22 22 20 19 19 18 18 19 19 19 19 20 21 20 17 15 13 11 11 11 10 10 11 11 11 11
10 7 9 10 11 13 11 11 14 11 8 9 10 7 6 7 10 10 9 5 8 9 15 15 8 2 3 4 4 4 8 8 7 9 9 7 10 12 11 8 8 9 8 8 7 7 11 12 13 14 16 18 19 19 20 20 19 19 20 21 21 21 20 19 20 20 22 23 22 21 20 20 21 20 18 18 16 13 12 11 10 9 9 9 10 9
9 7 11 13 11 12 12 11 13 11 6 8 11 10 11 11 9 12 10 7 9 5 9 12 6 1 3 5 6 5 8 8 7 9 9 9 11 12 11 8 7 7 8 9 8 7 10 12 13 15 17 17 17 18 18 18 19 19 20 20 21 20 20 20 21 22 23 23 24 23 22 20 21 20 19 19 17 14 12 10 8 7 8 8 9 9
7 10 12 13 11 12 13 11 13 13 6 6 10 10 14 15 12 13 9 6 7 5 8 8 6 2 4 6 8 7 9 10 9 9 9 9 10 10 9 7 5 6 6 8 8 8 9 12 14 15 16 17 17 17 18 18 18 18 19 20 20 20 20 20 20 20 19 20 22 21 20 20 21 21 19 17 15 14 12 10 7 6 7 7 8 8
8 13 14 14 14 13 13 11 13 13 8 7 9 10 14 15 15 15 7 3 5 6 8 8 7 5 4 7 10 10 10 11 10 10 10 10 11 12 11 10 9 9 9 9 9 9 9 11 13 14 16 17 17 18 19 19 18 18 18 19 19 19 17 17 17 17 17 18 20 19 18 18 19 19 18 15 14 12 10 10 9 8 7 7 8 9
10 13 16 17 15 11 11 12 12 12 10 9 9 11 12 12 14 13 5 3 4 8 8 7 6 6 3 6 10 10 11 12 12 12 11 12 13 12 13 13 12 12 11 9 9 9 11 13 15 16 17 18 19 20 21 21 20 20 20 20 19 18 16 16 16 17 18 19 19 19 18 18 17 16 16 14 12 11 10 11 12 10 9 9 10 11
9 11 12 15 13 10 10 12 14 14 10 8 10 12 12 11 10 7 4 3 3 6 8 9 7 5 2 6 9 8 9 11 11 11 10 12 13 12 12 12 10 11 11 9 9 11 13 15 17 18 18 19 20 22 23 23 24 23 22 21 20 18 16 16 16 17 18 17 16 16 16 17 17 16 15 14 13 12 10 11 12 12 11 11 12 13
10 11 11 10 10 10 10 11 15 15 9 8 11 11 10 9 5 4 4 2 2 3 7 11 10 7 3 5 9 9 10 13 12 11 10 12 13 12 11 10 9 10 11 10 10 12 16 18 19 20 19 20 22 23 25 25 25 24 22 22 20 18 18 18 18 19 19 16 15 15 14 15 16 15 15 16 16 14 12 12 13 12 13 13 14 14
12 12 10 8 10 12 10 10 13 15 11 8 9 8 5 5 3 3 3 1 3 4 6 12 12 9 5 5 9 10 11 16 16 15 16 15 14 12 11 11 9 10 12 11 10 11 15 18 18 19 19 21 24 24 24 23 23 23 23 23 21 19 19 19 20 20 20 18 16 15 15 15 15 15 16 18 17 15 14 14 13 12 12 14 15 16
9 12 12 10 11 13 11 8 9 12 12 9 8 6 4 3 3 5 4 1 3 4 5 11 10 7 5 6 13 12 10 16 16 16 19 18 16 13 13 12 9 10 12 11 11 11 12 14 16 19 19 21 23 23 22 21 22 22 22 22 22 20 18 18 18 18 18 17 15 15 16 16 17 18 19 20 19 17 15 13 12 12 13 14 16 17
6 9 14 12 9 12 11 7 7 8 9 10 9 6 5 4 4 5 4 2 2 3 3 6 7 4 3 5 14 17 14 16 16 15 18 18 17 15 14 13 10 10 12 11 11 11 11 13 16 19 19 21 23 22 22 23 23 22 21 21 22 21 18 17 17 16 15 14 13 14 15 17 19 20 20 20 20 18 16 13 13 13 13 14 15 16
5 5 13 13 7 13 15 9 8 7 6 9 8 5 4 4 5 4 3 3 3 2 3 3 3 3 3 4 10 14 12 13 14 13 15 15 15 14 13 13 10 10 12 11 11 11 12 16 19 19 20 21 22 22 23 25 24 22 20 20 20 20 18 17 16 16 16 15 14 14 15 17 18 19 19 20 19 17 15 14 14 13 13 14 15 16
6 4 11 14 7 12 16 11 9 7 5 6 5 4 5 4 4 4 3 4 5 2 2 2 0 1 2 2 5 13 12 12 15 14 15 15 15 15 14 13 12 11 11 12 12 11 13 18 20 20 21 22 22 22 24 26 24 23 21 20 20 19 17 16 16 17 16 16 15 15 15 16 17 17 18 18 17 15 15 14 14 14 14 15 16 16
6 4 12 17 10 10 13 11 10 7 5 5 4 4 6 4 5 4 2 2 5 3 3 1 2 3 5 6 5 13 15 13 16 16 15 16 17 16 14 13 13 12 12 12 12 11 14 18 19 21 22 21 21 24 26 26 25 24 23 22 21 18 17 16 15 15 15 16 16 16 15 15 15 16 17 18 17 14 14 15 15 15 15 15 16 17
5 3 10 18 12 7 7 6 7 4 4 5 5 6 4 2 3 4 3 1 4 3 3 2 6 4 4 1 1 10 15 13 15 16 14 14 16 15 13 14 14 13 13 12 13 13 15 17 19 21 22 21 23 25 26 25 24 24 24 23 21 19 18 16 15 15 15 15 15 14 14 13 12 13 17 18 17 16 16 17 16 16 16 16 16 16
4 1 6 13 10 2 2 2 3 7 5 4 6 6 5 3 3 1 3 4 5 3 3 1 8 6 4 6 8 11 14 14 14 15 15 15 16 14 14 15 15 14 13 12 13 13 13 17 20 21 22 22 24 25 25 25 25 25 24 23 21 20 18 17 16 16 15 15 15 14 14 14 15 16 19 19 17 17 18 17 17 17 17 16 16 17
5 2 2 7 9 4 0 1 2 5 7 5 5 6 5 4 3 3 4 4 5 4 2 1 4 4 4 10 16 16 16 17 16 16 16 17 16 15 15 16 15 15 14 12 13 12 13 18 20 22 23 23 24 25 25 26 26 25 24 23 21 20 18 17 16 16 17 17 17 17 17 18 19 19 19 18 18 18 18 18 18 17 17 17 17 16
5 4 1 4 7 6 3 4 6 6 4 5 4 5 5 4 3 3 2 3 4 4 4 3 3 4 4 9 18 20 19 19 19 18 16 16 17 16 16 16 15 15 14 13 13 13 15 19 21 22 24 24 24 24 24 26 26 25 24 23 22 21 20 18 18 19 20 20 20 20 20 20 20 19 19 19 19 19 19 18 18 18 18 18 17 16
4 3 3 4 5 5 7 9 9 8 6 5 4 4 6 5 3 3 2 2 3 4 5 5 3 5 5 5 15 20 19 18 19 19 16 17 17 16 16 16 16 15 14 14 13 13 15 20 21 21 23 24 24 23 24 26 26 25 25 24 23 22 21 20 20 20 20 20 21 21 21 21 21 21 21 21 21 20 19 19 18 18 18 18 17 17
4 4 4 5 5 7 9 10 11 12 9 6 5 4 6 6 4 5 3 4 3 2 5 5 3 5 6 2 11 17 18 18 18 17 16 16 15 15 16 15 15 15 14 14 13 12 16 20 22 22 23 23 23 23 25 26 26 26 26 25 24 23 23 21 20 20 21 23 23 23 23 23 22 21 21 21 21 20 20 19 19 19 18 17 16 16
3 4 4 6 4 4 6 7 11 12 9 4 6 5 4 5 5 5 4 4 4 4 5 4 2 4 6 1 11 15 17 16 14 15 17 14 12 14 17 16 15 14 14 14 12 12 16 20 22 22 22 21 22 23 25 26 26 27 26 25 24 24 23 22 20 21 24 25 24 23 23 23 23 22 22 22 21 20 20 19 19 19 19 18 17 15
1 2 3 5 3 1 3 3 7 11 8 3 4 5 5 5 7 8 4 2 2 5 5 6 2 5 6 2 11 15 16 15 13 14 16 15 13 14 15 15 15 15 14 15 13 13 15 18 19 20 20 21 21 22 25 26 27 27 26 25 25 24 24 22 22 25 25 24 24 24 24 23 23 23 23 23 22 22 21 20 19 19 19 20 20 17
2 3 3 5 4 4 5 4 5 7 5 2 2 6 8 8 7 9 4 3 1 4 4 6 3 5 6 3 13 15 15 15 14 14 14 14 15 16 15 14 14 14 15 16 15 14 14 16 18 20 21 21 21 22 25 26 26 27 26 25 25 25 24 23 24 26 25 25 26 25 24 24 24 24 24 23 23 22 21 20 18 18 18 18 18 16
1 2 2 4 5 6 6 3 3 4 4 3 4 5 7 10 6 5 4 4 4 3 2 3 7 4 5 2 11 15 14 15 14 14 13 12 14 15 14 14 14 14 14 15 15 14 14 15 17 20 21 21 21 23 26 27 26 26 26 26 26 26 25 24 25 27 26 26 26 26 26 25 25 24 24 24 23 22 21 20 18 18 17 15 15 14
3 1 3 2 3 4 5 5 7 8 7 6 6 5 7 11 7 4 5 5 5 5 1 3 9 11 4 4 10 13 13 15 14 15 14 13 14 14 14 15 15 14 14 14 15 15 16 15 16 19 21 22 22 23 26 27 25 26 28 28 28 27 26 26 27 27 27 27 27 26 26 26 25 25 24 24 23 23 22 21 20 19 18 16 15 15
4 1 3 3 5 5 5 6 10 13 10 9 10 8 7 10 9 5 5 5 4 7 4 5 9 12 8 6 12 15 14 15 15 15 14 14 14 15 16 17 16 16 16 15 15 16 16 15 15 19 21 22 23 24 26 26 25 27 29 27 28 29 27 26 27 27 27 27 27 27 27 26 26 25 24 24 24 23 23 22 21 21 20 19 18 16
4 1 3 1 4 7 8 9 10 15 11 10 12 9 7 10 10 6 6 5 4 8 10 8 7 8 6 6 13 14 12 12 12 12 13 14 15 16 17 17 16 16 16 16 16 15 15 15 17 21 23 23 25 25 25 27 26 28 29 27 28 30 27 27 27 27 27 27 27 28 28 26 26 25 24 24 23 23 22 22 21 21 21 21 19 16
2 2 3 1 3 7 7 6 4 13 14 11 12 11 7 9 9 7 6 3 3 5 9 11 8 4 5 5 11 11 10 12 12 13 14 14 15 16 16 16 16 16 16 16 16 15 15 15 17 21 23 25 27 25 24 28 29 28 28 28 29 29 28 28 28 27 27 28 28 29 28 27 27 26 26 25 24 24 23 22 22 21 21 20 18 16
1 1 3 3 2 6 3 6 7 4 10 9 10 12 9 8 6 6 6 5 4 5 8 10 7 5 5 5 11 12 14 15 14 14 13 12 14 16 16 16 16 16 16 16 16 16 16 15 16 19 21 25 29 26 24 29 30 27 28 29 29 29 28 28 28 27 28 28 29 29 28 28 28 27 26 26 25 24 24 23 23 21 21 19 17 16
3 3 2 1 2 5 3 5 7 3 5 1 6 7 7 7 6 4 4 5 6 7 7 6 6 5 5 8 12 13 15 15 14 14 13 13 14 15 16 17 17 17 17 17 16 16 16 16 18 21 23 25 28 27 26 30 30 28 29 30 29 29 29 29 29 29 29 29 29 29 29 28 28 27 26 25 24 24 23 23 23 22 21 19 17 16
4 5 1 1 2 3 4 5 5 5 4 3 6 4 1 4 6 6 5 5 5 5 6 6 4 6 10 11 12 14 14 14 14 14 14 16 15 14 15 16 16 16 16 16 16 16 16 18 21 25 26 25 28 29 29 30 29 28 29 30 29 29 29 30 30 30 30 30 29 29 29 29 29 28 26 26 25 25 24 24 23 22 21 20 19 18
3 3 1 1 2 1 3 6 6 2 2 5 6 4 3 5 5 4 5 6 7 7 7 7 5 8 11 11 12 13 13 12 14 14 15 16 16 16 16 15 16 17 16 16 16 16 17 20 23 26 25 25 28 30 29 29 29 29 30 29 29 29 29 30 30 30 30 30 30 30 30 29 29 28 27 27 26 26 25 24 23 22 21 20 19 18
4 3 0 1 2 1 2 4 2 3 5 4 6 4 3 6 7 5 2 3 6 8 8 6 5 5 8 10 10 11 10 10 11 12 14 15 15 16 16 16 17 17 16 16 17 18 20 23 26 27 26 26 29 30 30 30 31 31 30 29 29 29 30 30 30 30 31 31 31 31 30 30 30 29 28 28 27 26 25 24 23 22 21 20 19 18
5 4 2 1 1 3 3 2 1 2 5 6 6 3 2 4 4 5 2 5 5 5 8 8 6 5 5 8 10 9 10 10 8 7 11 14 15 16 15 16 17 17 17 19 22 24 24 26 30 30 27 27 30 30 31 34 33 30 29 29 29 29 29 29 29 30 31 31 31 31 31 31 30 30 29 28 27 26 25 24 24 22 21 21 20 18
5 4 4 2 0 3 5 2 2 2 3 5 7 7 2 4 4 6 5 4 7 2 4 9 9 8 6 8 10 9 8 9 6 6 9 12 13 13 12 13 16 18 21 23 25 26 26 29 32 30 28 29 30 30 34 36 33 31 29 28 28 28 28 28 29 30 31 31 31 31 31 31 31 30 29 28 27 26 25 24 23 22 21 20 20 19
7 4 5 4 0 2 5 3 1 2 4 6 7 9 5 2 5 7 5 4 7 5 1 6 10 10 8 8 9 9 8 7 6 6 8 12 13 13 13 13 14 19 25 27 28 27 28 31 31 28 28 30 30 32 36 36 33 31 29 28 28 28 27 28 29 31 32 31 32 32 31 31 30 30 30 28 27 26 25 24 23 21 20 19 19 18
6 2 4 3 2 1 3 2 2 2 4 6 6 6 5 2 8 8 2 6 7 7 5 2 7 8 7 7 8 9 8 8 8 7 10 14 13 13 15 15 16 20 25 27 29 30 31 32 30 28 29 30 30 34 37 35 32 30 28 28 28 27 27 29 31 32 32 32 32 32 31 31 30 30 29 28 26 25 24 23 22 21 19 18 18 17
3 1 2 4 3 3 1 1 1 2 5 6 5 7 3 5 9 5 5 7 5 7 7 4 5 7 7 7 7 6 6 7 8 9 12 14 13 13 15 18 22 26 28 30 31 32 32 31 29 29 30 31 33 35 36 34 31 29 28 28 28 27 29 31 31 31 32 32 33 32 31 31 30 30 29 28 27 25 23 22 21 20 19 19 19 17
3 2 2 4 4 3 2 2 1 2 6 3 4 5 5 6 2 4 6 4 2 5 8 8 6 7 6 7 7 5 3 6 11 14 14 15 15 13 14 17 21 24 27 31 33 33 32 29 28 29 30 32 35 35 35 33 30 28 28 27 27 29 31 32 31 32 33 33 32 32 31 31 30 30 29 27 26 26 24 22 21 19 19 21 20 17
4 3 2 3 4 2 2 1 3 2 6 1 6 5 5 4 6 5 2 2 3 5 6 7 3 3 6 7 6 7 7 9 12 14 14 14 14 14 15 17 19 21 25 29 31 33 32 28 26 28 31 32 35 35 34 32 29 27 27 26 27 31 33 32 32 33 33 33 33 32 32 31 31 30 28 27 26 26 24 21 20 20 21 21 18 15
2 3 3 3 3 3 2 2 2 4 4 2 5 3 2 3 4 2 2 2 3 4 3 4 5 4 9 10 7 8 10 10 11 13 13 13 14 14 14 17 19 22 25 28 30 32 32 28 25 28 31 33 34 34 32 31 30 28 27 27 30 33 33 32 33 33 33 33 33 32 32 31 30 29 28 27 26 25 22 20 19 20 20 19 16 14
2 3 4 2 1 2 4 3 2 1 2 6 6 3 3 4 3 4 5 3 4 4 2 4 6 6 7 9 8 8 9 10 12 13 13 13 14 14 16 18 20 24 26 27 29 32 31 28 27 29 30 32 33 33 31 31 32 30 28 30 33 34 34 33 33 33 33 33 33 33 32 31 30 29 27 26 26 25 22 20 19 19 19 18 17 15
1 1 2 2 3 2 3 2 3 4 5 6 6 4 5 6 6 6 6 5 5 5 5 4 7 6 6 8 8 7 8 9 11 11 11 12 13 14 15 17 20 25 27 26 28 31 30 29 29 29 30 31 32 31 31 32 34 32 30 33 36 35 34 34 33 33 33 33 33 32 31 31 30 28 27 26 26 24 22 21 20 19 19 19 18 17
2 3 3 3 4 3 2 2 3 2 3 4 6 6 6 7 7 6 6 5 5 6 6 5 5 7 7 7 8 8 8 9 10 9 9 11 12 13 14 14 18 25 27 27 30 31 30 29 28 28 29 30 29 31 33 32 32 32 33 35 36 36 35 34 33 33 33 33 32 31 31 31 30 28 27 26 24 22 21 21 19 17 17 18 17 17
3 3 3 2 4 4 2 2 4 4 1 2 4 4 5 6 6 6 5 5 6 6 7 7 6 7 6 6 7 8 7 8 9 9 8 9 11 12 12 14 19 24 27 29 32 31 29 29 28 28 29 29 28 31 33 31 30 33 35 36 36 36 35 34 34 34 33 32 32 31 30 31 30 29 27 25 23 22 22 21 18 16 15 15 15 15
2 2 2 0 3 4 2 3 5 5 4 4 5 6 5 6 6 6 6 5 6 6 7 7 7 6 6 6 7 8 7 7 8 9 8 9 11 11 12 16 23 25 27 31 33 31 29 30 30 29 29 29 29 32 32 31 31 34 36 37 37 36 35 34 34 34 32 31 31 30 30 31 30 29 27 25 23 22 20 18 17 16 13 12 13 13
1 2 3 2 4 2 1 2 1 4 2 2 4 6 6 6 6 4 5 4 6 6 6 7 7 6 6 6 6 7 7 6 7 9 8 8 9 11 14 20 24 25 27 31 32 29 28 31 31 29 28 29 31 32 32 31 32 34 37 38 37 37 36 35 33 33 32 30 30 30 31 31 30 29 28 25 23 21 18 15 16 15 12 12 13 12
2 1 1 4 4 2 5 4 2 4 4 1 4 6 5 5 5 3 3 4 5 5 6 6 5 6 6 5 5 7 7 6 7 9 8 7 11 16 21 24 25 25 27 31 30 26 27 30 30 29 28 30 32 33 32 32 34 35 37 37 36 37 37 36 34 32 31 30 31 32 32 31 31 29 27 24 23 21 19 18 16 13 11 12 13 12
Wind_Direction
195 217 221 217 215 212 216 225 228 231 235 222 197 195 199 209 235 234 228 223 193 182 192 165 134 150 161 143 138 144 127 124 128 123 121 127 131 133 132 131 127 125 121 126 130 138 154 153 141 142 142 139 141 146 152 155 159 162 161 154 144 148 157 158 152 149 149 149 145 140 131 121 111 108 106 99 93 90 91 94 91 86 78 73 72 67
194 224 225 220 215 211 216 225 235 239 241 236 206 201 200 204 228 234 241 230 183 171 163 133 125 140 146 125 138 146 134 142 145 139 139 135 131 133 131 124 115 105 103 118 123 129 147 151 143 143 141 139 140 144 152 157 161 161 156 150 146 148 154 157 155 152 151 151 147 138 127 118 110 108 105 101 99 98 97 88 77 71 67 64 63 58
203 226 222 214 207 214 215 213 230 242 243 244 223 206 199 200 213 229 247 236 176 162 138 127 125 135 140 122 138 153 135 147 154 142 141 137 134 135 132 123 117 114 112 127 130 134 149 154 147 144 141 141 142 145 152 156 157 155 152 151 151 151 154 156 157 156 155 150 143 135 126 119 113 111 110 107 103 96 88 78 70 69 70 66 63 59
206 222 212 206 204 210 215 207 221 239 244 243 229 216 216 204 192 215 247 228 170 141 126 122 108 109 120 107 144 168 135 136 139 128 130 134 132 131 131 128 130 130 125 130 132 138 152 155 150 147 142 142 144 146 150 154 154 154 154 154 155 155 156 156 156 155 150 142 135 129 123 120 117 115 111 104 95 88 83 78 74 76 76 72 65 61
215 200 189 213 210 200 210 214 216 228 238 240 233 224 234 224 197 207 233 183 122 107 118 114 81 74 142 128 161 152 127 133 128 122 120 120 122 120 120 123 133 140 139 139 144 149 154 154 152 149 144 144 149 150 151 155 157 157 157 157 156 156 155 154 153 149 144 140 135 128 125 123 118 114 108 99 92 88 87 83 80 76 73 69 61 57
222 181 180 211 212 195 208 219 217 218 226 243 238 227 237 248 228 216 213 130 105 122 144 125 91 269 191 156 167 141 128 136 128 126 123 117 119 118 120 126 143 158 152 145 148 152 151 150 150 148 147 149 152 153 153 157 160 158 159 157 154 153 152 151 149 148 147 144 139 135 133 129 117 107 102 100 97 92 90 90 86 72 61 62 61 60
214 187 184 203 206 200 210 223 222 215 210 238 236 227 236 248 256 244 221 144 133 183 192 157 121 164 197 176 178 157 142 146 140 138 133 123 119 120 125 132 153 178 162 146 147 149 148 148 146 144 147 150 150 152 154 157 157 153 152 150 149 150 150 148 147 149 148 143 140 134 131 128 118 108 103 103 102 97 96 93 84 67 58 60 65 66
201 191 187 198 204 203 209 219 219 208 205 232 232 229 237 240 251 259 249 179 171 161 193 193 124 124 194 189 177 160 148 151 152 148 140 131 127 132 143 151 165 179 170 156 152 149 148 146 143 140 141 143 143 145 149 151 150 148 144 143 144 144 145 145 142 140 135 133 134 132 126 122 118 113 110 109 105 102 100 91 81 71 61 62 74 72
199 199 190 195 203 208 208 211 214 209 210 226 230 232 240 239 242 252 259 234 181 142 187 212 132 123 194 174 164 162 159 160 163 159 145 135 140 151 161 164 169 169 162 157 152 146 144 141 137 133 131 134 137 140 143 143 141 139 135 132 131 128 132 138 134 127 126 128 130 131 126 118 116 117 115 113 108 107 104 94 89 82 69 70 82 78
196 216 204 196 203 210 208 207 213 218 214 212 228 241 244 240 243 248 247 239 184 155 191 204 158 131 155 161 157 164 177 174 166 162 148 140 154 170 170 170 170 159 152 153 148 140 136 135 134 132 131 133 136 136 136 136 135 133 128 125 120 116 121 130 131 129 130 131 127 125 121 118 121 120 115 113 112 113 106 97 95 87 76 73 78 78
189 215 225 209 200 204 207 207 213 223 222 200 220 243 245 239 251 259 243 197 158 221 209 192 173 146 143 179 169 177 189 175 160 159 156 151 165 177 170 171 172 154 148 149 146 138 133 134 135 136 135 135 136 136 136 137 135 132 129 128 122 118 121 124 126 128 128 126 120 117 117 122 127 124 119 119 117 112 101 97 100 93 85 77 73 76
192 199 221 216 197 198 205 206 209 223 230 219 218 223 227 242 253 257 281 95 150 251 230 187 173 157 164 203 193 196 184 165 160 164 164 161 169 175 165 169 173 155 149 149 145 140 135 136 139 139 137 135 136 139 140 139 137 134 132 132 126 121 121 120 120 121 120 117 114 116 119 123 130 131 127 124 120 113 102 101 106 100 91 82 75 75
205 195 205 211 196 195 204 198 202 219 222 227 225 192 179 213 209 214 250 220 181 256 228 171 156 166 190 195 190 192 177 164 165 168 165 162 166 169 163 168 174 158 151 147 145 144 140 140 144 142 138 137 139 141 141 139 136 132 131 130 124 119 120 119 118 118 117 112 110 114 116 119 126 128 127 124 119 113 107 107 109 101 93 85 77 75
213 198 198 206 194 191 206 195 190 214 205 212 221 177 163 178 178 202 218 192 180 296 262 159 142 176 207 192 183 181 174 164 159 161 161 159 161 164 162 164 166 155 150 146 145 146 142 145 148 146 142 142 144 144 141 138 135 131 128 126 121 118 117 115 115 118 118 114 112 114 115 116 120 121 120 119 116 112 109 109 107 100 96 90 83 80
196 196 193 205 191 179 202 207 189 194 181 205 215 159 162 181 160 185 188 157 177 255 282 182 147 180 201 218 182 163 151 143 139 145 149 150 155 156 155 159 159 153 150 145 145 146 144 148 150 147 145 148 150 146 139 137 137 134 130 127 122 119 119 117 115 118 119 119 119 120 117 116 119 119 117 115 112 109 110 114 110 104 100 96 90 88
200 214 185 198 201 175 197 218 197 179 170 205 207 154 198 206 145 156 179 156 149 163 256 202 193 5 122 56 110 122 118 119 125 135 144 148 153 153 156 161 159 155 149 144 145 145 144 149 151 148 150 154 154 146 140 139 139 137 133 130 125 122 124 122 118 116 117 119 121 124 122 118 119 119 119 118 114 110 115 120 115 107 103 98 95 92
194 222 177 185 213 195 195 217 206 181 169 199 211 193 212 197 132 129 188 155 106 129 239 171 74 55 80 36 62 116 119 120 129 141 150 151 153 154 157 159 157 153 149 146 147 145 146 151 152 151 155 158 152 144 142 141 141 139 136 133 129 128 130 130 125 119 119 122 123 124 125 124 123 121 122 124 121 119 124 123 116 111 105 100 97 93
168 222 188 181 200 206 181 214 239 231 167 170 205 208 200 191 155 119 135 157 105 138 258 128 129 148 125 52 233 131 126 133 140 146 151 150 152 154 153 153 153 149 148 149 146 144 147 152 153 154 158 156 147 144 145 143 141 139 137 137 136 134 134 135 134 129 124 125 125 125 129 132 133 133 131 129 126 126 127 124 119 115 110 104 99 94
158 201 209 176 167 177 131 128 284 289 261 193 183 185 171 178 218 177 145 169 144 150 288 140 151 176 160 155 172 157 148 151 148 148 154 157 156 154 151 152 150 148 150 151 148 145 149 155 155 155 157 153 146 145 145 144 142 139 139 142 141 140 139 140 140 138 132 128 129 131 133 130 131 137 138 134 131 130 129 125 121 117 113 109 103 97
165 124 247 174 144 129 45 115 190 271 273 245 182 164 171 168 174 181 172 164 146 151 242 221 164 204 203 163 165 169 164 158 156 159 163 165 162 158 156 155 152 153 155 154 152 150 153 156 155 154 155 152 148 145 143 143 142 140 142 144 143 142 142 142 142 141 139 136 136 138 136 133 134 138 140 138 135 131 126 123 120 115 112 109 105 102
146 124 216 188 148 136 187 221 203 203 233 235 194 165 186 204 185 187 200 169 146 146 172 196 222 251 231 168 163 169 170 166 165 165 165 168 167 161 159 157 155 156 156 156 156 152 153 154 153 155 155 151 148 145 143 143 141 142 145 145 145 145 144 143 143 144 144 143 142 142 141 141 142 141 139 137 133 129 126 123 119 115 112 109 105 105
134 132 140 171 172 176 204 217 208 209 210 190 180 175 180 195 182 159 244 225 152 141 164 173 218 264 265 181 165 168 169 169 169 164 163 169 168 160 157 156 153 155 155 155 155 150 151 152 152 155 153 149 150 149 145 144 142 144 147 147 148 148 145 147 152 153 153 150 147 144 143 142 142 140 138 136 133 130 128 124 121 119 116 112 108 107
130 115 131 169 201 195 201 208 203 220 235 187 183 201 172 179 167 135 175 218 197 172 168 152 162 260 277 199 155 161 165 169 170 163 160 165 164 153 150 149 147 150 151 151 151 150 150 150 150 153 153 152 154 150 145 145 145 147 150 150 150 149 149 155 159 157 153 149 146 145 143 141 140 140 137 135 132 130 127 125 123 120 117 113 112 110
113 100 140 172 201 187 190 203 200 222 251 205 194 207 168 182 183 163 177 183 185 199 167 132 140 257 280 127 135 150 158 162 166 161 158 158 152 145 145 145 144 146 148 148 150 151 150 147 147 152 154 155 155 150 146 147 148 150 151 152 152 152 155 159 157 150 147 146 145 144 142 140 139 139 136 134 133 131 129 127 123 120 118 115 114 112
172 120 127 140 133 132 178 204 207 224 243 218 196 206 211 216 190 199 229 104 163 216 156 124 176 247 280 114 135 146 147 150 158 158 154 149 142 143 145 145 145 146 149 151 153 154 151 146 148 154 156 158 157 153 150 148 149 152 154 155 155 155 159 160 152 150 151 149 146 143 142 142 142 141 139 138 137 134 132 130 127 125 122 119 115 112
193 168 121 131 150 175 195 205 203 212 225 241 219 203 219 236 197 192 210 91 166 238 143 122 180 253 312 69 139 148 141 141 149 149 148 146 143 146 147 147 149 150 152 155 155 157 153 148 151 155 158 162 159 153 153 152 152 154 156 157 158 158 161 161 153 153 154 150 146 145 144 145 144 141 139 137 135 134 133 132 131 128 125 122 119 114
109 193 179 149 164 183 195 198 159 174 196 216 238 221 212 230 214 139 116 139 180 200 165 166 151 147 324 11 143 153 144 138 144 145 147 148 143 144 147 148 151 152 154 156 155 155 154 150 152 156 160 164 160 154 155 157 157 159 159 160 161 162 163 162 157 155 154 149 146 146 145 145 144 141 139 136 135 134 132 130 128 126 125 124 121 116
85 249 239 215 231 214 195 188 163 175 202 206 229 240 201 216 226 123 129 196 169 115 199 216 140 140 214 228 161 161 151 143 149 152 152 151 146 144 145 147 150 151 153 156 156 156 155 154 155 157 161 164 161 157 157 160 163 162 160 160 163 165 164 162 159 156 152 149 148 146 146 145 144 142 140 138 137 136 133 131 129 127 126 122 115 109
107 227 248 239 273 277 257 234 183 179 201 203 215 228 187 202 221 162 161 214 153 123 170 201 150 154 189 188 157 160 158 153 156 153 147 147 145 143 146 149 152 155 156 157 159 158 157 157 157 159 162 165 164 161 160 163 163 159 159 160 161 163 163 161 158 155 152 150 149 148 147 146 145 144 142 140 139 136 133 131 128 127 126 122 114 107
88 257 268 248 282 281 275 263 201 178 186 194 210 222 184 193 211 178 174 212 149 138 159 160 153 170 190 156 144 151 151 142 140 139 138 144 146 145 149 152 155 158 159 159 160 159 160 161 161 162 163 165 168 167 162 162 160 156 158 160 158 159 162 160 157 155 154 153 150 150 149 147 146 145 143 140 138 136 135 132 130 127 124 122 118 113
49 267 278 33 328 278 269 293 236 184 179 181 203 222 201 189 205 194 182 183 110 134 151 138 134 194 225 153 130 131 129 124 128 139 144 147 148 148 150 153 157 160 160 162 162 160 163 163 163 166 165 164 170 171 161 158 159 157 157 158 157 159 161 160 159 157 156 154 151 151 149 148 147 144 141 140 138 138 137 135 133 129 125 124 121 117
176 269 328 42 323 276 271 349 332 197 166 169 197 216 206 181 190 202 187 166 143 145 139 127 139 208 228 146 124 128 134 135 139 145 147 150 152 151 153 157 161 163 162 164 164 162 164 166 165 169 166 163 170 171 159 155 157 156 156 157 158 161 162 162 160 158 155 153 152 151 150 149 147 144 142 142 141 140 139 137 135 132 128 126 124 119
155 123 3 81 220 276 322 354 334 29 95 168 227 223 206 175 162 174 183 175 164 145 132 150 188 198 169 138 130 135 141 143 150 152 151 155 157 157 160 162 164 167 166 165 166 166 167 168 167 169 167 165 169 168 158 156 157 155 156 158 160 163 163 161 160 157 155 154 154 152 151 150 148 146 145 144 143 141 140 138 136 134 131 130 128 121
141 136 197 176 155 263 322 9 7 38 70 252 260 272 212 152 155 172 189 186 173 151 148 171 174 133 135 142 142 147 155 157 160 162 158 157 159 163 166 167 166 167 166 165 167 168 169 168 168 170 169 167 167 164 157 157 158 156 157 160 162 164 163 160 160 159 157 157 156 154 152 151 150 148 146 145 144 142 141 139 138 136 135 134 132 126
123 127 234 302 110 218 334 41 44 6 223 235 270 309 43 81 108 158 193 183 158 137 132 144 144 135 145 157 157 158 164 159 153 159 162 160 162 164 165 169 168 166 165 167 167 169 171 168 165 168 170 166 163 162 159 156 157 157 160 163 164 164 162 160 160 160 159 158 157 155 155 154 152 149 147 147 146 144 142 141 139 139 138 137 135 131
144 137 138 325 110 120 17 67 108 247 263 291 317 332 43 56 57 61 6 248 179 146 138 153 180 171 153 159 167 162 154 143 140 154 165 165 165 164 164 168 169 168 168 167 166 168 170 166 163 167 170 164 158 160 160 159 159 159 161 164 164 163 163 162 162 161 160 159 157 157 157 155 152 150 148 148 146 144 143 142 140 139 139 138 137 134
152 146 97 17 64 121 127 143 182 306 311 318 322 319 106 96 89 99 93 280 255 172 157 164 185 206 167 154 169 166 141 130 132 161 173 170 169 167 165 164 165 166 166 164 164 166 166 164 165 168 169 164 160 159 160 161 161 159 160 162 163 163 164 164 164 162 160 159 158 158 157 154 152 151 149 148 147 146 146 144 142 141 140 140 139 136
162 158 132 137 331 103 115 104 17 6 285 266 263 262 212 130 130 118 108 298 299 301 161 162 175 206 201 162 167 166 138 132 151 185 182 171 165 161 157 158 158 158 158 158 160 163 163 164 168 170 167 163 161 157 157 159 159 158 159 161 162 164 165 165 164 162 160 160 159 158 157 156 154 152 150 149 149 149 148 145 144 144 143 142 142 141
176 156 117 124 286 98 116 134 183 198 242 243 245 263 265 140 102 82 72 285 290 329 29 166 177 198 201 177 166 157 144 154 183 196 177 164 163 159 153 153 154 154 157 159 159 161 162 164 168 168 165 163 160 155 156 158 157 156 159 162 164 166 167 166 164 162 161 160 159 158 158 157 155 153 151 152 151 149 147 146 146 146 145 143 141 139
172 151 105 126 247 235 136 160 203 206 254 245 219 229 248 90 81 81 101 256 281 336 351 203 192 198 190 169 156 156 167 184 191 187 169 157 155 156 155 156 154 152 155 159 160 161 163 165 166 165 164 164 160 156 156 157 157 158 161 163 165 168 168 166 164 163 161 159 158 158 159 158 156 155 154 153 151 149 149 149 148 148 148 147 144 139
148 144 143 158 220 266 184 178 234 237 256 249 195 181 176 63 64 96 199 236 287 337 338 306 228 204 173 145 148 170 197 189 164 156 153 147 146 152 154 155 154 153 156 159 160 160 162 166 166 164 164 163 159 158 158 156 157 160 163 165 168 169 167 165 164 162 160 158 158 158 159 159 158 156 154 153 152 151 151 151 151 152 156 156 154 148
158 171 167 166 197 238 198 179 81 285 268 255 125 118 91 76 96 220 222 234 323 349 338 318 261 210 166 135 140 151 164 151 142 144 149 150 150 150 147 147 148 151 154 157 159 160 162 165 164 161 162 161 158 159 160 158 160 162 165 168 169 168 165 163 163 161 158 157 158 158 159 159 157 155 155 155 154 152 151 154 158 161 161 159 157 153
168 167 189 194 195 184 183 170 114 205 264 294 94 80 60 111 199 231 272 346 3 15 1 343 312 171 131 119 125 126 125 129 135 142 148 148 148 148 148 148 149 151 154 156 159 162 163 163 161 158 159 159 158 159 161 161 162 163 165 168 167 164 164 163 162 160 158 157 158 158 158 158 156 156 156 156 155 153 154 158 162 162 161 158 156 159
175 160 179 200 189 143 150 220 195 213 259 27 89 129 138 149 202 206 97 22 357 17 32 30 32 81 116 124 127 123 124 128 135 142 145 144 146 147 148 150 150 152 156 158 160 164 164 162 158 156 157 160 160 162 164 164 163 164 165 166 164 162 163 162 160 158 157 156 156 156 155 155 156 157 158 157 156 155 156 157 157 157 159 159 160 167
251 190 171 155 86 132 157 184 215 243 10 53 78 121 110 68 26 53 84 67 20 7 24 85 76 65 94 117 122 119 125 135 143 146 146 148 150 148 148 154 154 154 157 158 159 163 165 163 158 154 156 161 163 165 167 165 163 164 165 164 163 162 162 161 159 157 155 154 154 154 153 154 156 158 159 158 158 157 157 157 157 157 161 163 165 171
269 228 163 112 74 74 105 104 57 25 17 43 63 68 66 52 27 37 59 49 29 13 16 75 104 94 87 101 108 113 127 138 143 145 143 146 150 148 148 153 153 153 155 156 158 162 164 162 160 157 158 162 165 167 169 168 166 165 164 162 163 163 161 160 158 155 154 154 154 154 154 155 157 159 159 159 159 159 160 160 160 160 164 168 172 176
17 23 41 101 115 90 59 70 88 70 358 23 43 43 57 60 38 35 52 41 26 25 20 35 86 100 94 96 103 115 129 132 134 137 134 138 147 150 147 149 152 155 158 159 160 162 163 163 163 162 162 165 166 165 166 168 167 165 164 162 163 163 162 160 157 155 154 155 154 155 156 157 158 159 159 159 161 162 163 163 164 169 176 183 189 193
342 14 34 104 117 107 111 116 108 116 122 34 50 50 67 76 54 31 33 35 33 28 15 17 53 84 88 90 103 118 127 128 132 137 132 135 147 151 148 151 154 156 159 161 163 164 163 165 167 164 163 166 165 161 163 165 165 164 164 163 163 163 162 160 158 156 156 157 156 157 159 159 160 159 159 160 162 163 165 168 175 183 188 192 198 198
283 335 323 81 86 75 71 50 56 61 30 19 59 74 70 81 72 28 2 19 46 38 18 20 45 79 96 97 101 112 123 129 136 137 133 136 147 149 146 151 155 157 159 162 166 166 165 167 168 165 163 165 164 162 163 164 165 166 165 164 164 164 162 160 158 158 158 159 159 160 161 162 161 160 160 161 163 168 174 182 189 189 181 178 185 187
7 5 340 48 75 57 259 242 116 108 88 13 70 84 71 75 82 40 348 19 56 54 46 45 45 57 83 98 104 112 125 138 140 139 136 137 143 145 143 147 153 157 159 163 167 168 166 168 169 166 164 164 164 163 164 165 166 167 167 166 166 166 163 160 159 159 160 161 162 163 163 164 163 162 162 164 167 171 174 178 186 191 183 172 174 179
13 352 27 94 115 177 217 215 170 130 134 85 64 74 64 63 71 45 11 52 71 64 63 67 64 61 66 76 95 114 130 140 138 137 137 136 141 145 146 150 154 157 159 163 167 165 163 166 167 163 160 161 163 164 165 166 167 167 167 167 168 167 165 162 160 161 163 165 165 166 166 166 165 165 166 167 168 167 161 154 156 168 176 175 174 175